Regional Weather Roundup
Issued by NWS

Home | Current Version | Previous Version | Graphics & Text | Print | Product List | Glossary Off
Versions: 1 2 3 4 5 6 7 8 9 10 11 12 13 14 15 16 17 18 19 20 21 22 23 24 25 26 27 28 29 30 31 32 33 34 35 36 37 38 39 40 41 42 43 44 45 46 47 48 49 50

000
ASUS43 KDTX 170201
RWRMI
MICHIGAN HOURLY REGIONAL WEATHER ROUNDUP
NATIONAL WEATHER SERVICE DETROIT/PONTIAC MI
1000 PM EDT WED APR 16 2014

NOTE: "FAIR" INDICATES FEW OR NO CLOUDS BELOW 12,000 FEET WITH NO
SIGNIFICANT WEATHER AND/OR OBSTRUCTION TO VISIBILITY.

MIZ047>049-052>055-059>063-066>070-074>076-081>083-170300-
SOUTHEAST LOWER MICHIGAN

CITY           SKY/WX    TMP DP  RH WIND       PRES   REMARKS
ADRIAN         CLEAR     34  26  72 E15       30.36S WCI  24
ALMA           PTCLDY    37  23  56 SE10      30.35R WCI  30
ANN ARBOR      CLEAR     34  22  61 E9        30.37S WCI  27
BAD AXE        PTCLDY    33  22  62 SE7       30.42S WCI  27
CARO           PTCLDY    36  17  45 SE8       30.40R WCI  29
DETROIT CITY   CLEAR     36  21  54 E10       30.43R WCI  28
DETROIT        MOCLDY    34  20  56 E12       30.41R WCI  25
FLINT          PTCLDY    35  17  47 SE14      30.38S WCI  26
GROSSE ILE     CLEAR     34  23  64 E10       30.40S WCI  26
HILLSDALE      CLEAR     35  26  70 E13G21    30.31S WCI  26
HOWELL         CLEAR     35  20  54 E12       30.35F WCI  26

CITY           SKY/WX    TMP DP  RH WIND       PRES   REMARKS
JACKSON        CLEAR     34  24  67 SE12      30.33R WCI  25
LAMBERTVILLE   CLEAR     36  28  75 E7        30.38S WCI  30
LANSING        CLEAR     37  23  56 E13       30.34R WCI  29
LAPEER         FAIR      32  17  54 SE6       30.41R WCI  26
MASON          CLEAR     36  25  65 SE9       30.34R WCI  29
MONROE         CLEAR     36  27  69 E14       30.38S WCI  27
MT. CLEMENS    CLEAR     34  19  55 E15       30.42R WCI  24
PONTIAC        PTCLDY    34  18  52 SE9       30.38R WCI  27
PORT HOPE        N/A     35  23  61 SE7       30.42R WCI  29
PORT HURON     CLEAR     32  18  55 E7        30.45R WCI  26
TRI CITIES     MOCLDY    38  24  57 SE18      30.38R WCI  28
TROY           CLEAR     35  19  52 E5        30.42S WCI  31
SAGINAW HB     PTCLDY    36  23  60 SE10      30.39R WCI  28
YPSILANTI      CLEAR     36  20  52 E12       30.40R WCI  28
$$
MIZ043>046-050>051-056>058-064>065-071>073-077>080-170300-
SOUTHWEST LOWER MICHIGAN

CITY           SKY/WX    TMP DP  RH WIND       PRES   REMARKS
BATTLE CREEK   CLEAR     40  23  50 SE9       30.29R WCI  34
BENTON HARBOR  PTCLDY    43  23  45 SE13      30.22S
BIG RAPIDS     MOCLDY    40  22  49 SE10G17   30.28R WCI  33
COLDWATER      CLEAR     38  25  59 E8G16     30.29S WCI  33
FREMONT        FAIR      41  20  42 SE12      30.25S
HOLLAND        MOCLDY    44  24  45 E13       30.25S
GRAND RAPIDS   MOCLDY    41  23  48 SE13      30.29R
IONIA          FAIR      38  25  60 SE13G20   30.31R WCI  30
KALAMAZOO      CLEAR     41  23  48 SE10      30.28R
LUDINGTON      CLOUDY    42  22  45 SE8       30.24S
MARSHALL       CLEAR     36  26  65 SE15      30.30R WCI  27
MOUNT PLEASANT MOCLDY    39  24  53 SE13G18   30.34R WCI  32
MUSKEGON       CLOUDY    44  20  38 SE16      30.24S
SOUTH HAVEN    MOCLDY    43  22  43 SE10G18   30.23F
$$
MIZ016>042-170300-
NORTHERN LOWER MICHIGAN

CITY           SKY/WX    TMP DP  RH WIND       PRES   REMARKS
ALPENA         CLOUDY    32  21  64 SE9       30.41S WCI  24
BEAVER ISLAND  CLOUDY    30  28  94 E18G24    30.28F WCI  18
BELLAIRE       CLOUDY    37  24  57 E9        30.29F WCI  31
CADILLAC       CLOUDY    36  22  56 E14G20    30.25F WCI  27
CHARLEVOIX     CLOUDY    33  32  96 E14       30.31F WCI  23
FRANKFORT      CLOUDY    38  26  62 SE8       30.24R WCI  32
GAYLORD        CLOUDY    34  20  56 SE13      30.31F WCI  25
GRAYLING       CLOUDY    35  20  54 E9        30.33S WCI  28
HARBOR SPRINGS CLOUDY    32  31  96 E7        30.34F WCI  26
HOUGHTON LAKE  CLOUDY    35  19  52 E10       30.32F WCI  27
MANISTEE       CLOUDY    41  19  42 SE9       30.25R
OSCODA         CLOUDY    35  24  62 SE8       30.42R WCI  29
PELLSTON       LGT SNOW  31  29  92 E7        30.35F FOG     WCI  24
ROGERS CITY    CLOUDY    32  24  72 SE14G22   30.41R WCI  22
TRAVERSE CITY  CLOUDY    38  23  55 E8        30.27F WCI  32
$$
MIZ007>008-015-170300-
EASTERN UPPER MICHIGAN

CITY           SKY/WX    TMP DP  RH WIND       PRES   REMARKS
KINROSS        CLOUDY    28  28 100 E9        30.38S WCI  20
MACKINAC ISLAN LGT SNOW  31  30  97 E8        30.35F WCI  24
NEWBERRY       LGT SNOW  27  26  94 E10       30.32F WCI  17
S. S. MARIE    FLURRIES  31  21  66 E6        30.39S WCI  25
MUNISING         N/A     31  26  82 E5        30.32R WCI  26
$$
MIZ004>006-011>014-085-170300-
CENTRAL UPPER MICHIGAN

CITY           SKY/WX    TMP DP  RH WIND       PRES   REMARKS
MANISTIQUE     CLOUDY    29  27  92 E8        30.32R WCI  21
ESCANABA       CLOUDY    30  27  86 E14       30.26R WCI  20
MENOMINEE      CLOUDY    32  28  86 E13       30.22S WCI  22
SAWYER-GWINN   LGT SNOW  28  27  93 E7        30.25R WCI  21
$$
MIZ001>003-009>011-084-170300-
WESTERN UPPER MICHIGAN

CITY           SKY/WX    TMP DP  RH WIND       PRES   REMARKS
IRON MOUNTAIN  LGT SNOW  30  26  85 E6G17     30.20R FOG     WCI  24
HOUGHTON       LGT SNOW  28  25  88 E17G23    30.25S VSB 3/4 WCI  16
COPPER HARBOR    N/A     29  27  92 SE7       30.31S WCI  22
IRONWOOD       CLOUDY    28  25  86 E10       30.10S WCI  19
$$

ABBREVIATIONS USED IN REMARKS
   TC - TEMPERATURE IN CELSIUS
  WCI - WIND CHILL INDEX
   HX - HEAT INDEX
  VSB - VISIBILITY




USA.gov is the U.S. government's official web portal to all federal, state and local government web resources and services.